TimeEST,TemperatureF,Dew PointF,Humidity,Sea Level PressureIn,VisibilityMPH,Wind Direction,Wind SpeedMPH,Gust SpeedMPH,PrecipitationIn,Events,Conditions,WindDirDegrees,DateUTC
12:58 AM,45.9,36.9,71,30.31,10.0,NNW,9.2,-,N/A,,Clear,330,2013-02-18 05:58:00
1:58 AM,46.2,37.0,70,30.30,10.0,NNW,6.9,-,N/A,,Clear,340,2013-02-18 06:58:00
2:58 AM,47.5,36.5,66,30.28,10.0,NNW,10.4,-,N/A,,Clear,340,2013-02-18 07:58:00
3:58 AM,48.2,37.4,66,30.27,10.0,North,12.7,-,N/A,,Clear,350,2013-02-18 08:58:00
4:58 AM,48.2,37.4,66,30.28,10.0,North,12.7,-,N/A,,Clear,350,2013-02-18 09:58:00
5:59 AM,48.0,36.9,65,30.28,10.0,North,11.5,-,N/A,,Clear,350,2013-02-18 10:59:00
6:58 AM,48.2,37.4,66,30.30,10.0,NNW,6.9,-,N/A,,Partly Cloudy,340,2013-02-18 11:58:00
7:58 AM,50.0,37.4,62,30.31,10.0,North,6.9,-,N/A,,Clear,360,2013-02-18 12:58:00
8:58 AM,55.4,41.0,58,30.31,10.0,North,5.8,-,N/A,,Partly Cloudy,350,2013-02-18 13:58:00
9:58 AM,60.8,44.6,55,30.32,10.0,NNE,4.6,-,N/A,,Partly Cloudy,20,2013-02-18 14:58:00
10:58 AM,68.0,46.4,46,30.32,10.0,East,18.4,24.2,N/A,,Clear,90,2013-02-18 15:58:00
11:58 AM,68.0,46.4,46,30.32,10.0,East,12.7,19.6,N/A,,Clear,80,2013-02-18 16:58:00
12:58 PM,69.8,48.2,46,30.29,10.0,East,15.0,19.6,N/A,,Partly Cloudy,80,2013-02-18 17:58:00
1:58 PM,69.8,50.0,49,30.26,10.0,ENE,17.3,21.9,N/A,,Partly Cloudy,70,2013-02-18 18:58:00
2:58 PM,68.9,51.4,54,30.24,10.0,East,17.3,20.7,N/A,,Partly Cloudy,80,2013-02-18 19:58:00
3:58 PM,70.0,49.6,48,30.24,10.0,East,15.0,23.0,N/A,,Clear,100,2013-02-18 20:58:00
4:58 PM,68.2,53.1,58,30.24,10.0,East,11.5,-,N/A,,Mostly Cloudy,80,2013-02-18 21:58:00
5:58 PM,66.2,53.8,64,30.24,10.0,East,11.5,-,N/A,,Clear,80,2013-02-18 22:58:00
6:58 PM,65.7,54.7,68,30.24,10.0,East,10.4,-,N/A,,Mostly Cloudy,80,2013-02-18 23:58:00
7:58 PM,65.8,55.4,69,30.24,10.0,East,9.2,-,N/A,,Mostly Cloudy,80,2013-02-19 00:58:00
8:58 PM,65.1,56.1,73,30.23,10.0,East,9.2,-,N/A,,Partly Cloudy,80,2013-02-19 01:58:00
9:58 PM,66.6,57.7,73,30.23,10.0,East,10.4,-,N/A,,Partly Cloudy,90,2013-02-19 02:58:00
10:58 PM,66.2,55.9,69,30.23,10.0,ESE,6.9,-,N/A,,Clear,110,2013-02-19 03:58:00
11:58 PM,65.5,54.9,68,30.21,10.0,ESE,8.1,-,N/A,,Clear,110,2013-02-19 04:58:00